Weather reports worldwide

Advertisment
Kinloss, United Kingdom (3066): temperature & dewpoint: 14.07.2018 23:00:00 - 20.07.2018 23:00:00 (BST)Kinloss, United Kingdom (3066): temperature -20cm & temperature -100cm: 14.07.2018 23:00:00 - 20.07.2018 23:00:00 (BST)Kinloss, United Kingdom (3066): wind speed & gusts: 14.07.2018 23:00:00 - 20.07.2018 23:00:00 (BST)Kinloss, United Kingdom (3066): wind direction: 14.07.2018 23:00:00 - 20.07.2018 23:00:00 (BST)Kinloss, United Kingdom (3066): reduced air pressure: 14.07.2018 23:00:00 - 20.07.2018 23:00:00 (BST)Kinloss, United Kingdom (3066): visibility: 14.07.2018 23:00:00 - 20.07.2018 23:00:00 (BST)Kinloss, United Kingdom (3066): sunshine duration: 14.07.2018 23:00:00 - 20.07.2018 23:00:00 (BST)Kinloss, United Kingdom (3066): precipitation: 14.07.2018 23:00:00 - 20.07.2018 23:00:00 (BST)
Date & Time tt [°C] td [°C] tt -20cm [°C] tt -100cm [°C] ff [km/h] ff [kn] fx [km/h] fx [kn] dd ppp [hPa] vv [km] sd [min] rr [mm]
20.07.2018 23:00:00 14,2 13,7 - - 8 4 - - E 1012,8 35 0 0,0
20.07.2018 22:00:00 14,2 13,8 - - 13 7 - - NNE 1012,9 35 0 0,2
20.07.2018 21:00:00 14,5 14,0 - - 24 13 - - N 1012,5 3,0 0 0,4
20.07.2018 20:00:00 16,4 14,0 - - 15 8 - - NNE 1011,7 65 0 0,0
20.07.2018 19:00:00 16,8 14,8 - - 9 5 - - NNE 1011,4 18 0 0,0
20.07.2018 18:00:00 18,0 14,8 - - 13 7 - - N 1011,1 60 0 0,0
20.07.2018 17:00:00 18,8 14,4 - - 9 5 - - NW 1011,1 65 6 0,0
20.07.2018 16:00:00 19,0 12,9 - - 9 5 - - N 1010,8 75 18 0,0
20.07.2018 15:00:00 20,3 14,3 - - 16 9 - - NNW 1010,6 60 42 0,0
20.07.2018 14:00:00 19,1 14,5 - - 11 6 - - W 1010,6 70 30 0,0
20.07.2018 13:00:00 17,4 14,5 - - 9 5 - - WSW 1010,6 - 36 0,0
20.07.2018 12:00:00 15,8 15,0 - - 9 5 - - SSW 1010,7 10 0 0,2
20.07.2018 11:00:00 14,4 13,9 - - 11 6 - - SW 1010,8 22 0 0,6
20.07.2018 10:00:00 14,0 13,5 16,2 13,7 11 6 - - SW 1011,1 8 0 1,2
20.07.2018 09:00:00 13,4 12,8 - - 9 5 - - SW 1011,1 5 0 1,6
20.07.2018 08:00:00 13,1 12,5 - - 8 4 - - SW 1011,1 8 0 2,0
20.07.2018 07:00:00 12,9 12,2 - - 8 4 - - SSW 1011,1 8 0 0,6
20.07.2018 06:00:00 13,1 11,8 - - 9 5 - - SSW 1011,3 23 0 0,0
20.07.2018 05:00:00 13,1 11,5 - - 11 6 - - S 1011,6 60 0 0,2
20.07.2018 04:00:00 12,8 11,3 - - 8 4 - - SSW 1012,1 60 0 0,0
20.07.2018 03:00:00 12,7 11,5 - - 9 5 - - SSW 1012,7 27 0 0,4
20.07.2018 02:00:00 13,1 10,9 - - 9 5 - - SW 1013,2 45 0 0,0
20.07.2018 01:00:00 13,3 10,6 - - 15 8 - - SSW 1013,6 50 - 0,0
20.07.2018 00:00:00 13,7 10,3 - - 21 11 - - SW 1014,1 21 0 0,0
19.07.2018 23:00:00 15,3 9,3 - - 18 10 - - WSW 1014,5 60 0 0,0
19.07.2018 22:00:00 16,3 8,4 - - 22 12 - - WSW 1014,8 60 0 0,0
19.07.2018 21:00:00 16,9 8,4 - - 21 11 - - WSW 1015,0 10 0 0,0
19.07.2018 20:00:00 17,6 8,2 - - 21 11 - - WSW 1015,0 60 6 0,0
19.07.2018 19:00:00 19,5 7,8 - - 24 13 - - WSW 1014,7 50 60 0,0
19.07.2018 18:00:00 20,8 9,1 - - 24 13 - - W 1015,1 55 48 0,0
19.07.2018 17:00:00 21,4 8,3 - - 29 16 46 25 WSW 1015,2 60 54 0,0
19.07.2018 16:00:00 22,7 10,2 - - 28 15 46 25 W 1015,4 45 54 0,0
19.07.2018 15:00:00 21,3 9,3 - - 34 18 48 26 W 1015,8 45 54 0,0
19.07.2018 14:00:00 20,2 9,3 - - 28 15 - - W 1016,1 60 36 0,0
19.07.2018 13:00:00 20,7 10,4 - - 15 8 - - NW 1016,6 50 60 0,0
19.07.2018 12:00:00 19,7 10,5 - - 13 7 - - WNW 1017,0 60 60 0,0
19.07.2018 11:00:00 18,8 9,9 - - 15 8 - - W 1017,2 50 60 0,0
19.07.2018 10:00:00 18,0 9,5 15,9 13,7 15 8 - - W 1017,7 50 60 0,0
19.07.2018 09:00:00 16,6 10,1 - - 15 8 - - WSW 1018,1 55 60 0,0
19.07.2018 08:00:00 14,5 8,8 - - 11 6 - - WSW 1018,5 55 60 0,0
19.07.2018 07:00:00 12,5 8,6 - - 9 5 - - SSW 1018,6 60 48 0,0
19.07.2018 06:00:00 10,3 8,2 - - 8 4 - - SW 1018,6 60 18 0,0
19.07.2018 05:00:00 10,4 8,7 - - 9 5 - - SW 1018,5 50 0 0,0
19.07.2018 04:00:00 11,7 9,7 - - 9 5 - - SSW 1018,4 50 0 0,0
19.07.2018 03:00:00 11,9 9,8 - - 4 2 - - S 1018,6 50 0 0,0
19.07.2018 02:00:00 11,5 9,0 - - 2 1 - - W 1018,8 50 0 0,0
19.07.2018 01:00:00 11,6 9,0 - - 4 2 - - SSE 1018,9 35 - 0,0
19.07.2018 00:00:00 11,5 8,3 - - 2 1 - - ESE 1019,1 45 0 0,0
18.07.2018 23:00:00 12,5 8,9 - - 4 2 - - ESE 1018,9 50 0 0,0
18.07.2018 22:00:00 14,6 8,4 - - 5 3 - - E 1018,8 60 0 0,0
18.07.2018 21:00:00 15,9 8,0 - - 9 5 - - ENE 1018,6 60 12 0,0
18.07.2018 20:00:00 16,9 7,9 - - 11 6 - - NNE 1018,4 60 6 0,0
18.07.2018 19:00:00 16,8 7,8 - - 11 6 - - NNE 1018,2 60 18 0,0
18.07.2018 18:00:00 17,8 8,5 - - 9 5 - - NNE 1018,0 65 60 0,0
18.07.2018 17:00:00 18,1 8,3 - - 11 6 - - NNE 1018,0 65 54 0,0
18.07.2018 16:00:00 17,4 9,6 - - 11 6 - - N 1017,9 65 0 0,0
18.07.2018 15:00:00 17,4 9,1 - - 9 5 - - NW 1017,6 60 0 0,0
18.07.2018 14:00:00 17,2 9,7 - - 16 9 - - NNW 1017,2 65 6 0,0
18.07.2018 13:00:00 17,9 9,5 - - 15 8 - - W 1016,8 75 6 0,0
18.07.2018 12:00:00 15,9 9,6 - - 15 8 - - NW 1016,6 60 18 0,0
18.07.2018 11:00:00 16,4 9,5 - - 11 6 - - WSW 1016,3 60 24 0,0
18.07.2018 10:00:00 15,0 9,6 16,0 13,7 11 6 - - WSW 1016,4 50 0 0,0
18.07.2018 09:00:00 14,6 9,9 - - 15 8 - - SW 1016,3 10 18 0,0
18.07.2018 08:00:00 13,4 10,0 - - 15 8 - - SW 1015,9 45 0 0,0
18.07.2018 07:00:00 12,7 9,3 - - 13 7 - - SW 1015,5 55 24 0,0
18.07.2018 06:00:00 10,8 8,7 - - 13 7 - - SSW 1015,1 65 0 0,0
18.07.2018 05:00:00 11,2 9,0 - - 5 3 - - S 1014,9 60 0 0,0
18.07.2018 04:00:00 11,1 9,5 - - 9 5 - - SSW 1014,7 55 0 0,0
18.07.2018 03:00:00 11,8 11,2 - - 9 5 - - SSW 1014,6 30 0 0,2
18.07.2018 02:00:00 11,9 11,4 - - 5 3 - - SSW 1014,5 26 0 0,0
18.07.2018 01:00:00 12,6 11,9 - - 4 2 - - S 1014,5 26 - 0,0
18.07.2018 00:00:00 12,7 11,9 - - 4 2 - - WSW 1014,5 35 0 0,0
17.07.2018 23:00:00 13,1 12,2 - - 5 3 - - N 1014,0 45 0 0,0
17.07.2018 22:00:00 13,5 11,8 - - 5 3 - - W 1013,6 45 0 0,0
17.07.2018 21:00:00 14,6 12,6 - - 5 3 - - S 1013,2 55 0 0,0
17.07.2018 20:00:00 14,9 13,0 - - 8 4 - - SE 1012,8 55 0 0,2
17.07.2018 19:00:00 14,8 13,1 - - 11 6 - - ESE 1012,4 50 0 0,0
17.07.2018 18:00:00 14,9 12,8 - - 5 3 - - E 1012,6 55 0 1,0
17.07.2018 17:00:00 15,7 12,2 - - 9 5 - - NW 1012,4 11 6 0,0
17.07.2018 16:00:00 16,6 11,9 - - 9 5 - - NNW 1011,9 35 0 0,0
17.07.2018 15:00:00 16,7 12,7 - - 5 3 - - W 1012,0 60 0 0,2
17.07.2018 14:00:00 14,7 12,8 - - 11 6 - - W 1012,1 7 0 0,4
17.07.2018 13:00:00 17,4 9,3 - - 16 9 - - N 1011,4 - 30 0,0
17.07.2018 12:00:00 18,9 10,2 - - 4 2 - - ESE 1011,6 55 30 0,0
17.07.2018 11:00:00 17,1 10,3 - - 5 3 - - WNW 1011,7 60 0 0,0
17.07.2018 10:00:00 16,8 10,2 16,0 13,5 16 9 - - SW 1011,7 65 54 0,0
17.07.2018 09:00:00 15,3 10,8 - - 9 5 - - SW 1011,8 55 6 0,0
17.07.2018 08:00:00 14,1 9,3 - - 9 5 - - SW 1011,5 60 0 0,0
17.07.2018 07:00:00 13,7 9,1 - - 8 4 - - SSW 1011,4 60 0 0,0
17.07.2018 06:00:00 11,3 8,8 - - 5 3 - - ESE 1011,4 55 0 0,0
17.07.2018 05:00:00 12,0 8,1 - - 8 4 - - SSW 1011,2 60 0 0,0
17.07.2018 04:00:00 11,4 8,7 - - 4 2 - - SW 1011,4 60 0 0,0
17.07.2018 03:00:00 10,8 8,2 - - 4 2 - - SSE 1011,6 60 0 0,0
17.07.2018 02:00:00 11,7 7,3 - - 4 2 - - SSE 1011,8 55 0 0,0
17.07.2018 01:00:00 13,5 8,2 - - 9 5 - - SSW 1011,7 65 - 0,0
17.07.2018 00:00:00 14,3 8,7 - - 8 4 - - SW 1011,9 65 0 0,0
16.07.2018 23:00:00 14,7 8,8 - - 9 5 - - SW 1011,7 60 0 0,0
16.07.2018 22:00:00 16,4 9,3 - - 8 4 - - SW 1011,5 65 0 0,0
16.07.2018 21:00:00 17,4 9,4 - - 11 6 - - WSW 1010,9 65 0 0,0
16.07.2018 20:00:00 18,4 9,1 - - 21 11 - - WSW 1010,7 65 12 0,0
16.07.2018 19:00:00 18,7 9,7 - - 21 11 - - WNW 1010,4 55 0 0,0
16.07.2018 18:00:00 18,9 10,0 - - 13 7 - - W 1010,3 60 0 0,0
16.07.2018 17:00:00 18,8 10,8 - - 5 3 - - NW 1010,4 60 0 0,0
16.07.2018 16:00:00 19,4 13,6 - - 5 3 - - NE 1010,3 40 0 0,0
16.07.2018 15:00:00 18,9 13,5 - - 11 6 - - ESE 1010,4 55 6 0,0
16.07.2018 14:00:00 18,9 11,9 - - 11 6 - - NE 1010,4 50 6 0,0
16.07.2018 13:00:00 18,5 11,9 - - 2 1 - - E 1010,6 50 0 0,0
16.07.2018 12:00:00 17,5 12,6 - - 4 2 - - W 1010,7 50 0 0,0
16.07.2018 11:00:00 16,6 13,0 - - 8 4 - - W 1010,6 55 0 0,0
16.07.2018 10:00:00 15,5 14,0 16,2 13,5 9 5 - - SW 1010,5 60 0 0,4
16.07.2018 09:00:00 15,8 13,5 - - 13 7 - - WSW 1010,3 60 0 0,0
16.07.2018 08:00:00 15,1 13,9 - - 11 6 - - WSW 1010,1 70 0 0,0
16.07.2018 07:00:00 14,4 13,8 - - 8 4 - - SSW 1009,7 55 0 0,4
16.07.2018 06:00:00 14,5 13,6 - - 11 6 - - WSW 1009,9 4,1 0 0,2
16.07.2018 05:00:00 17,0 15,5 - - 16 9 - - WSW 1009,3 25 0 0,0
16.07.2018 04:00:00 17,9 15,2 - - 8 4 - - S 1008,7 45 0 0,0
16.07.2018 03:00:00 18,2 15,0 - - 5 3 - - S 1008,9 45 0 0,0
16.07.2018 02:00:00 18,6 15,1 - - 9 5 - - SSW 1009,1 75 0 0,0
16.07.2018 01:00:00 18,0 15,3 - - 2 1 - - SE 1009,3 75 - 0,0
16.07.2018 00:00:00 17,7 15,8 - - 5 3 - - N 1009,5 70 0 0,0
15.07.2018 23:00:00 19,0 15,4 - - 9 5 - - S 1009,7 75 0 0,0
15.07.2018 22:00:00 19,3 16,1 - - 8 4 - - S 1009,9 75 0 0,0
15.07.2018 21:00:00 19,2 17,5 - - 2 1 - - NNW 1009,9 65 0 0,0
15.07.2018 20:00:00 19,7 17,1 - - 8 4 - - SSW 1009,9 60 0 0,2
15.07.2018 19:00:00 20,4 17,3 - - 9 5 - - SSW 1010,0 55 0 0,0
15.07.2018 18:00:00 19,7 18,4 - - 2 1 - - SE 1010,2 45 0 0,4
15.07.2018 17:00:00 18,2 16,9 - - 16 9 - - NW 1010,5 45 0 0,6
15.07.2018 16:00:00 20,6 17,6 - - 9 5 - - N 1010,5 60 0 0,0
15.07.2018 15:00:00 21,0 18,8 - - 4 2 - - SE 1010,7 60 0 0,2
15.07.2018 14:00:00 19,5 18,2 - - 9 5 - - W 1011,0 50 0 0,4
15.07.2018 13:00:00 20,2 16,1 - - 15 8 - - WNW 1010,9 24 0 0,0
15.07.2018 12:00:00 21,8 16,1 - - 13 7 - - SW 1011,1 75 0 0,0
15.07.2018 11:00:00 21,2 15,8 - - 15 8 - - SSW 1010,9 65 0 0,0
15.07.2018 10:00:00 20,2 15,6 16,0 13,4 11 6 - - SSW 1011,2 50 0 0,0
15.07.2018 09:00:00 20,0 15,8 - - 8 4 - - S 1011,0 65 0 0,0
15.07.2018 08:00:00 19,3 15,8 - - 9 5 - - SSW 1011,2 75 0 0,0
15.07.2018 07:00:00 18,7 15,4 - - 11 6 - - S 1011,1 65 0 0,0
15.07.2018 06:00:00 18,0 15,2 - - 11 6 - - S 1011,1 60 0 0,0
15.07.2018 05:00:00 17,2 15,3 - - 8 4 - - SSW 1010,9 28 0 0,0
15.07.2018 04:00:00 16,8 15,4 - - 4 2 - - NNW 1011,3 55 0 0,0
15.07.2018 03:00:00 16,8 15,4 - - 9 5 - - S 1011,5 30 0 0,8
15.07.2018 02:00:00 17,6 15,0 - - 13 7 - - SSW 1011,8 28 0 0,0
15.07.2018 01:00:00 18,8 13,9 - - 11 6 - - S 1012,0 55 - 0,0
15.07.2018 00:00:00 19,2 13,8 - - 13 7 - - SSW 1012,2 50 0 0,0
14.07.2018 23:00:00 19,5 13,5 - - 15 8 - - SSW 1012,5 55 0 0,0

tt = temperature
td = dewpoint
tt -20cm = temperature -20cm
tt -100cm = temperature -100cm
ff = wind speed
fx = gusts
dd = wind direction
ppp = reduced air pressure
vv = visibility
sd = sunshine duration
rr = precipitation

Next stations